sat.trackr.live / text

‹ back to catalog

STARLINK-1246

NORAD 45235 · 2020-012BK

PAYLOAD ACTIVE UNKNOWN

§ Identity

Operator
Country
US
Launch date
2020-02-17
Launch site
AFETR
Launch vehicle
Mass (kg)
RCS (m²)

Purposes: comms

External: N2YO · Heavens-Above · Gunter

§ Orbital elements

Epoch: 2026-09-19T11:30:26.469792Z

Period
93.28 min
Inclination
53.1500°
Eccentricity
0.0003675
Mean motion
15.43697377 rev/d
Perigee alt
432.7 km
Apogee alt
437.7 km
Semi-major
6,813.3 km
B*
9.6850e-4
RAAN
211.2159°
Arg perigee
114.6194°
Mean anomaly
245.5196°
Rev number
36,475

§ Raw data

STARLINK-12461 45235U 20012BK  26262.47947303  .00044226  00000+0  96850-3 0  99972 45235  53.1500 211.2159 0003675 114.6194 245.5196 15.43697377364752

JSON: /api/v1/satellites/45235 · /tle

For live sub-satellite position, see the globe view (requires WebGL).

§ Visibility from observer

Set your observer location to see the next 7 days of passes ≥ 10°. The values pass through the URL so the page stays shareable.

No JS? Fill the form by hand. The geolocation button needs JavaScript.